Weather History for KHRL - November, 2012

Change the Weather History Date:

Sunday, November 4, 2012

  Actual Average Record
Temperature  
Mean Temperature 77 °F 72 °F  
Max Temperature 86 °F 83 °F 91 °F (1934)
Min Temperature 68 °F 61 °F 37 °F (1917)
Degree Days  
Heating Degree Days 0 0  
Month to date heating degree days 0 0  
Since 1 July heating degree days 4 3  
Cooling Degree Days 12 7  
Month to date cooling degree days 48 31  
Year to date cooling degree days 4575 3807  
Growing Degree Days 26 (Base 50)    
Moisture  
Dew Point 64 °F    
Average Humidity 69    
Maximum Humidity 90    
Minimum Humidity 47    
Precipitation  
Precipitation 0.00 in 0.08 in 1.14 in (1952)
Month to date precipitation 0.00 0.36  
Year to date precipitation 13.24 22.78  
Sea Level Pressure  
Sea Level Pressure 30.03 in    
Wind  
Wind Speed 5 mph (SE)    
Max Wind Speed 21 mph    
Max Gust Speed 24 mph    
Visibility 10 miles    
Events      
T = Trace of Precipitation, MM = Missing Value Source: NWS Daily Summary

Daily Weather History Graph

Daily Weather History Graph

Search for Another Location

Airport or City:

Trip Planner

Search our weather history database for the weather conditions in past years. The results will help you decide how hot, cold, wet, or windy it might be!

Date:

Astronomy

Nov. 04, 2012 Rise Set
Actual Time 6:41 AM CST 5:46 PM CST
Civil Twilight 6:17 AM CST 6:10 PM CST
Nautical Twilight 5:50 AM CST 6:37 PM CST
Astronomical Twilight 5:23 AM CST 7:04 PM CST
Moon 10:29 PM CST (11/4) 11:20 AM CST (11/4)
Length of Visible Light 11h 52m
Length of Day
11h 04m
Waning Gibbous, 72% of the Moon is Illuminated
Nov 4
Waning Gibbous
Nov 6
Last Quarter
Nov 13
New
Nov 20
First Quarter
Nov 28
Full

Hourly Weather History & Observations

Time (CST) Temp. Heat Index Dew Point Humidity Pressure Visibility Wind Dir Wind Speed Gust Speed Precip Events Conditions
12:52 AM 72.0 °F - 68.0 °F 87% 30.00 in 10.0 mi SE 5.8 mph - N/A   Clear
1:52 AM 71.1 °F - 66.9 °F 87% 30.00 in 10.0 mi East 4.6 mph - N/A   Clear
1:52 AM 71.1 °F - 68.0 °F 90% 30.00 in 10.0 mi SE 5.8 mph - N/A   Clear
2:52 AM 70.0 °F - 66.9 °F 90% 29.99 in 10.0 mi SSE 3.5 mph - N/A   Clear
3:52 AM 70.0 °F - 66.9 °F 90% 29.99 in 10.0 mi SE 4.6 mph - N/A   Clear
4:52 AM 70.0 °F - 66.9 °F 90% 29.99 in 10.0 mi SE 3.5 mph - N/A   Clear
5:52 AM 69.1 °F - 66.9 °F 93% 30.01 in 10.0 mi ESE 3.5 mph - N/A   Clear
6:52 AM 69.1 °F - 66.9 °F 93% 30.04 in 10.0 mi East 5.8 mph - N/A   Clear
7:52 AM 73.9 °F - 70.0 °F 87% 30.05 in 10.0 mi East 5.8 mph - N/A   Clear
8:52 AM 81.0 °F 84.4 °F 70.0 °F 69% 30.06 in 10.0 mi SE 8.1 mph - N/A   Clear
9:52 AM 82.9 °F 85.8 °F 68.0 °F 60% 30.07 in 10.0 mi SE 6.9 mph - N/A   Scattered Clouds
10:52 AM 84.9 °F 88.2 °F 68.0 °F 57% 30.06 in 10.0 mi SE 8.1 mph - N/A   Mostly Cloudy
11:52 AM 84.9 °F 87.1 °F 66.0 °F 53% 30.03 in 10.0 mi SSE 3.5 mph - N/A   Overcast
12:52 PM 82.9 °F 83.2 °F 60.1 °F 46% 30.00 in 10.0 mi SW 6.9 mph - N/A   Clear
1:52 PM 82.0 °F 83.4 °F 64.0 °F 54% 29.99 in 10.0 mi SE 11.5 mph - N/A   Partly Cloudy
2:52 PM 81.0 °F 81.3 °F 59.0 °F 47% 29.99 in 10.0 mi SE 10.4 mph - N/A   Partly Cloudy
3:52 PM 81.0 °F 81.6 °F 60.1 °F 49% 30.01 in 10.0 mi SE 8.1 mph - N/A   Clear
4:52 PM 79.0 °F - 62.1 °F 56% 30.00 in 10.0 mi SSE 8.1 mph - N/A   Scattered Clouds
5:52 PM 75.0 °F - 61.0 °F 62% 30.03 in 10.0 mi Calm Calm - N/A   Clear
6:52 PM 73.0 °F - 61.0 °F 66% 30.06 in 10.0 mi Calm Calm - N/A   Clear
7:52 PM 72.0 °F - 60.1 °F 66% 30.06 in 10.0 mi West 3.5 mph - N/A   Clear
8:52 PM 71.1 °F - 60.1 °F 68% 30.06 in 10.0 mi SSW 4.6 mph - N/A   Clear
9:52 PM 70.0 °F - 60.1 °F 71% 30.06 in 10.0 mi Calm Calm - N/A   Clear
10:52 PM 70.0 °F - 60.1 °F 71% 30.06 in 10.0 mi North 4.6 mph - N/A   Scattered Clouds